Location: Berg
(48.4333°N, 13.9167°E)
Time: 02:43:24
(UTC+00:00)

MetOp-B - Pass Details

Date: 18 September 2020
Orbit: 819 x 821 km, 98.7° (Epoch: 24 October)

Event Time Altitude Azimuth Distance (km) Brightness Sun altitude
Exits shadow 19:41:03 65° 118° (ESE) 902 4.0 -24.4°
Maximum altitude 19:41:40 72° 72° (ENE) 864 4.0 -24.5°
Drops below altitude 10° 19:47:01 10° 349° (N) 2,428 7.2 -25.3°
Sets 19:49:22 0° 347° (NNW) 3,364 8.0 -25.6°
